Location: Waco, TX
(31.5480°N, 97.1670°W)
Time: 18:49:32
(UTC-05:00)

ISS - Pass Details

Date: 15 September 2018
Orbit: 403 x 409 km, 51.6° (Epoch: 24 September)

Event Time Altitude Azimuth Distance (km) Brightness Sun altitude
Rises 22:18:22 0° 212° (SSW) 2,317 - -34.3°
Reaches altitude 10° 22:20:29 10° 205° (SSW) 1,460 - -34.7°
Maximum altitude 22:23:38 45° 131° (SE) 562 - -35.3°
Drops below altitude 10° 22:26:47 10° 57° (ENE) 1,465 - -35.8°
Sets 22:28:55 0° 51° (NE) 2,327 - -36.2°
